TimeEDT,TemperatureF,Dew PointF,Humidity,Sea Level PressureIn,VisibilityMPH,Wind Direction,Wind SpeedMPH,Gust SpeedMPH,PrecipitationIn,Events,Conditions,WindDirDegrees,DateUTC
12:53 AM,69.1,64.0,84,30.01,10.0,SE,6.9,-,N/A,,Overcast,130,2013-09-24 04:53:00
1:53 AM,68.0,64.0,87,30.00,10.0,SE,6.9,-,N/A,,Overcast,140,2013-09-24 05:53:00
2:20 AM,66.2,64.4,94,30.02,6.0,SE,6.9,-,0.00,,Overcast,130,2013-09-24 06:20:00
2:28 AM,66.2,64.4,94,30.02,7.0,SE,5.8,-,0.00,,Overcast,130,2013-09-24 06:28:00
2:53 AM,66.9,64.9,93,30.00,4.0,ESE,4.6,-,0.00,Rain,Light Rain,120,2013-09-24 06:53:00
3:10 AM,66.2,64.4,94,30.02,3.0,ESE,5.8,-,0.00,Rain,Light Rain,120,2013-09-24 07:10:00
3:32 AM,66.2,64.4,94,30.01,3.0,SE,6.9,-,0.01,Rain,Light Rain,130,2013-09-24 07:32:00
3:42 AM,66.2,64.4,94,30.01,2.5,ESE,8.1,-,0.01,Rain,Light Rain,120,2013-09-24 07:42:00
3:53 AM,66.0,64.9,96,30.00,2.5,ESE,6.9,-,0.02,Rain,Light Rain,120,2013-09-24 07:53:00
4:07 AM,66.2,64.4,94,30.01,2.5,ESE,5.8,-,0.00,Rain,Light Rain,110,2013-09-24 08:07:00
4:26 AM,66.2,64.4,94,30.01,3.0,ESE,6.9,-,0.00,,Overcast,110,2013-09-24 08:26:00
4:53 AM,66.0,64.9,96,30.00,3.0,ESE,5.8,-,0.01,,Overcast,110,2013-09-24 08:53:00
5:53 AM,66.0,64.9,96,30.01,8.0,ESE,5.8,-,N/A,,Overcast,110,2013-09-24 09:53:00
6:53 AM,66.0,64.9,96,30.01,8.0,East,5.8,-,N/A,,Overcast,90,2013-09-24 10:53:00
7:03 AM,66.2,64.4,94,30.03,8.0,East,4.6,-,N/A,,Overcast,90,2013-09-24 11:03:00
7:10 AM,66.2,64.4,94,30.03,8.0,East,5.8,-,N/A,,Overcast,90,2013-09-24 11:10:00
7:22 AM,66.2,64.4,94,30.03,8.0,ESE,3.5,-,N/A,,Overcast,110,2013-09-24 11:22:00
7:45 AM,66.2,64.4,94,30.04,1.8,East,5.8,-,0.02,Rain,Rain,100,2013-09-24 11:45:00
7:53 AM,66.0,64.9,96,30.03,1.5,ESE,5.8,-,0.05,Rain,Rain,110,2013-09-24 11:53:00
8:07 AM,66.2,64.4,94,30.04,2.5,ESE,4.6,-,0.02,Rain,Light Rain,110,2013-09-24 12:07:00
8:14 AM,66.2,64.4,94,30.04,2.5,ESE,5.8,-,0.03,Rain,Light Rain,110,2013-09-24 12:14:00
8:19 AM,66.2,64.4,94,30.04,3.0,ESE,4.6,-,0.03,Rain,Light Rain,110,2013-09-24 12:19:00
8:23 AM,66.2,64.4,94,30.04,2.5,ESE,5.8,-,0.03,Rain,Light Rain,110,2013-09-24 12:23:00
8:35 AM,66.2,64.4,94,30.04,5.0,East,4.6,-,0.03,Rain,Light Rain,90,2013-09-24 12:35:00
8:53 AM,66.0,64.9,96,30.03,4.0,East,4.6,-,0.03,,Overcast,90,2013-09-24 12:53:00
9:09 AM,66.2,64.4,94,30.04,6.0,East,4.6,-,N/A,,Overcast,100,2013-09-24 13:09:00
9:53 AM,66.0,64.9,96,30.03,10.0,East,6.9,-,N/A,,Overcast,80,2013-09-24 13:53:00
10:53 AM,66.9,64.0,90,30.02,10.0,East,10.4,-,N/A,,Overcast,100,2013-09-24 14:53:00
11:53 AM,66.9,64.0,90,30.03,9.0,East,6.9,-,N/A,,Overcast,90,2013-09-24 15:53:00
12:53 PM,68.0,63.0,84,30.01,10.0,ESE,10.4,18.4,N/A,,Overcast,110,2013-09-24 16:53:00
1:02 PM,68.0,62.6,83,30.02,10.0,ESE,10.4,-,N/A,,Overcast,110,2013-09-24 17:02:00
1:53 PM,68.0,63.0,84,30.01,10.0,East,8.1,-,N/A,,Overcast,90,2013-09-24 17:53:00
2:53 PM,68.0,62.1,81,29.99,10.0,ESE,6.9,-,N/A,,Overcast,110,2013-09-24 18:53:00
3:53 PM,70.0,63.0,78,29.97,10.0,East,6.9,-,N/A,,Overcast,90,2013-09-24 19:53:00
4:53 PM,69.1,62.1,78,29.95,10.0,ESE,6.9,-,N/A,,Overcast,110,2013-09-24 20:53:00
5:53 PM,69.1,62.1,78,29.95,10.0,SE,6.9,-,N/A,,Overcast,130,2013-09-24 21:53:00
6:53 PM,68.0,63.0,84,29.95,10.0,East,3.5,-,N/A,,Overcast,90,2013-09-24 22:53:00
7:53 PM,66.9,63.0,87,29.92,10.0,East,4.6,-,N/A,,Overcast,100,2013-09-24 23:53:00
8:53 PM,66.0,63.0,90,29.93,10.0,ESE,5.8,-,N/A,,Overcast,110,2013-09-25 00:53:00
9:53 PM,66.0,63.0,90,29.92,10.0,East,4.6,-,N/A,,Overcast,100,2013-09-25 01:53:00
10:04 PM,66.2,62.6,88,29.92,10.0,ESE,5.8,-,N/A,,Overcast,110,2013-09-25 02:04:00
10:35 PM,66.2,62.6,88,29.90,10.0,ESE,8.1,-,N/A,,Mostly Cloudy,110,2013-09-25 02:35:00
10:46 PM,66.2,62.6,88,29.91,10.0,North,5.8,-,N/A,,Overcast,10,2013-09-25 02:46:00
10:53 PM,66.0,63.0,90,29.91,10.0,Calm,Calm,-,N/A,,Overcast,0,2013-09-25 02:53:00
11:01 PM,66.2,62.6,88,29.91,10.0,East,8.1,-,N/A,,Overcast,100,2013-09-25 03:01:00
11:53 PM,66.9,64.0,90,29.91,10.0,Calm,Calm,-,N/A,,Overcast,0,2013-09-25 03:53:00